Carbondale, IL

10:22 AM CST on February 24, 2018 (GMT -0600)
Southern Illinois

Weather History for KMDH - February, 2014

Change the Weather History Date:

Saturday, February 22, 2014

  Actual Average Record
Temperature  
Mean Temperature 50 °F -  
Max Temperature 64 °F 53 °F 73 °F (1922)
Min Temperature 36 °F 28 °F -7 °F (1963)
Degree Days  
Heating Degree Days 15    
Moisture  
Dew Point 28 °F    
Average Humidity 48    
Maximum Humidity 73    
Minimum Humidity 27    
Precipitation  
Precipitation 0.00 in - - ()
Sea Level Pressure  
Sea Level Pressure 29.98 in    
Wind  
Wind Speed 12 mph (SSW)    
Max Wind Speed 23 mph    
Max Gust Speed 31 mph    
Visibility 10 miles    
Events      
Averages and records for this station are not official NWS values.
T = Trace of Precipitation, MM = Missing Value Source: NWS Daily Summary

Daily Weather History Graph

Daily Weather History Graph

Search for Another Location

Airport or City:

Trip Planner

Search our weather history database for the weather conditions in past years. The results will help you decide how hot, cold, wet, or windy it might be!

Date:

Astronomy

Feb. 22, 2014 Rise Set
Actual Time 6:37 AM CST 5:43 PM CST
Civil Twilight 6:11 AM CST 6:10 PM CST
Nautical Twilight 5:40 AM CST 6:40 PM CST
Astronomical Twilight 5:10 AM CST 7:11 PM CST
Moon 12:30 AM CST (2/22) 10:57 AM CST (2/22)
Length of Visible Light 11h 58m
Length of Day
11h 05m
Waning Gibbous, 50% of the Moon is Illuminated
Feb 22
Waning Gibbous
Mar 1
New
Mar 8
First Quarter
Mar 16
Full
Mar 23
Last Quarter

Hourly Weather History & Observations

Time (CST) Temp. Windchill Dew Point Humidity Pressure Visibility Wind Dir Wind Speed Gust Speed Precip Events Conditions
12:52 AM 46.0 °F 39.0 °F 26.1 °F 46% 29.99 in 10.0 mi SW 17.3 mph 25.3 mph N/A   Clear
1:52 AM 45.0 °F 37.6 °F 27.0 °F 49% 29.99 in 10.0 mi SW 17.3 mph - N/A   Clear
2:52 AM 44.1 °F 40.1 °F 26.1 °F 49% 30.01 in 10.0 mi WSW 6.9 mph - N/A   Clear
3:52 AM 41.0 °F 37.1 °F 26.1 °F 55% 30.02 in 10.0 mi SW 5.8 mph - N/A   Clear
4:52 AM 37.9 °F 32.1 °F 26.1 °F 62% 30.03 in 10.0 mi SSW 8.1 mph - N/A   Clear
5:52 AM 37.9 °F 32.7 °F 25.0 °F 60% 30.04 in 10.0 mi South 6.9 mph - N/A   Clear
6:52 AM 36.0 °F 30.3 °F 26.1 °F 67% 30.04 in 10.0 mi South 6.9 mph - N/A   Clear
7:52 AM 37.0 °F 31.6 °F 28.0 °F 70% 30.05 in 10.0 mi South 6.9 mph - N/A   Clear
8:52 AM 46.0 °F 42.5 °F 30.9 °F 56% 30.06 in 10.0 mi SSW 6.9 mph - N/A   Clear
9:52 AM 53.1 °F - 27.0 °F 37% 30.05 in 10.0 mi SW 11.5 mph - N/A   Clear
10:52 AM 57.0 °F - 28.0 °F 33% 30.03 in 10.0 mi SSW 10.4 mph - N/A   Clear
11:52 AM 61.0 °F - 28.0 °F 29% 30.00 in 10.0 mi WSW 8.1 mph - N/A   Clear
12:52 PM 64.0 °F - 28.9 °F 27% 29.96 in 10.0 mi SW 15.0 mph 20.7 mph N/A   Clear
1:52 PM 63.0 °F - 28.0 °F 27% 29.94 in 10.0 mi SSW 18.4 mph 23.0 mph N/A   Clear
2:52 PM 61.0 °F - 28.9 °F 30% 29.91 in 10.0 mi South 17.3 mph 24.2 mph N/A   Clear
3:52 PM 61.0 °F - 28.9 °F 30% 29.89 in 10.0 mi South 23.0 mph 31.1 mph N/A   Clear
4:52 PM 57.9 °F - 27.0 °F 31% 29.89 in 10.0 mi South 17.3 mph - N/A   Clear
5:52 PM 55.0 °F - 26.1 °F 33% 29.89 in 10.0 mi SSW 16.1 mph 24.2 mph N/A   Clear
6:52 PM 48.9 °F - 28.9 °F 46% 29.90 in 10.0 mi SSW 12.7 mph - N/A   Clear
7:52 PM 50.0 °F - 30.0 °F 46% 29.91 in 10.0 mi SSW 10.4 mph - N/A   Clear
8:52 PM 46.9 °F - 32.0 °F 56% 29.96 in 10.0 mi North 11.5 mph - N/A   Clear
9:52 PM 43.0 °F 36.8 °F 34.0 °F 71% 29.99 in 10.0 mi NE 11.5 mph - N/A   Mostly Cloudy
10:52 PM 39.0 °F 35.7 °F 30.0 °F 70% 30.02 in 10.0 mi NNE 4.6 mph - N/A   Clear
11:52 PM 37.9 °F 32.7 °F 30.0 °F 73% 30.04 in 10.0 mi NNE 6.9 mph - N/A   Clear